TimeEST,TemperatureF,Dew PointF,Humidity,Sea Level PressureIn,VisibilityMPH,Wind Direction,Wind SpeedMPH,Gust SpeedMPH,PrecipitationIn,Events,Conditions,WindDirDegrees,DateUTC
12:55 AM,61.7,50.0,65,30.08,10.0,South,8.1,-,N/A,,Overcast,170,2012-12-04 05:55:00
1:55 AM,60.4,49.6,68,30.08,10.0,South,12.7,-,N/A,,Mostly Cloudy,190,2012-12-04 06:55:00
2:55 AM,60.4,49.5,67,30.07,10.0,South,12.7,-,N/A,,Mostly Cloudy,190,2012-12-04 07:55:00
3:55 AM,60.8,49.3,66,30.06,10.0,South,15.0,-,N/A,,Mostly Cloudy,190,2012-12-04 08:55:00
4:55 AM,60.4,49.1,66,30.05,10.0,South,15.0,-,N/A,,Mostly Cloudy,190,2012-12-04 09:55:00
5:55 AM,59.9,48.9,67,30.05,10.0,South,11.5,-,N/A,,Overcast,190,2012-12-04 10:55:00
6:55 AM,59.7,48.7,67,30.06,10.0,South,12.7,-,N/A,,Overcast,190,2012-12-04 11:55:00
7:55 AM,59.5,49.1,68,30.06,10.0,South,11.5,-,N/A,,Overcast,190,2012-12-04 12:55:00
8:05 AM,59.0,48.2,67,30.06,10.0,South,15.0,-,N/A,,Overcast,190,2012-12-04 13:05:00
8:55 AM,60.1,49.8,69,30.06,10.0,South,16.1,-,N/A,,Mostly Cloudy,190,2012-12-04 13:55:00
9:55 AM,62.8,51.6,67,30.06,10.0,South,15.0,21.9,N/A,,Mostly Cloudy,190,2012-12-04 14:55:00
10:04 AM,62.6,51.8,68,30.06,10.0,South,13.8,-,N/A,,Mostly Cloudy,190,2012-12-04 15:04:00
10:55 AM,63.9,53.1,68,30.05,10.0,South,17.3,-,N/A,,Mostly Cloudy,190,2012-12-04 15:55:00
11:55 AM,63.5,53.8,71,30.04,10.0,SSW,18.4,-,N/A,,Mostly Cloudy,200,2012-12-04 16:55:00
12:09 PM,64.4,53.6,68,30.03,10.0,SSW,16.1,-,N/A,,Overcast,200,2012-12-04 17:09:00
12:20 PM,64.4,53.6,68,30.02,10.0,South,17.3,23.0,N/A,,Overcast,190,2012-12-04 17:20:00
12:55 PM,64.2,54.5,71,30.01,10.0,SSW,16.1,23.0,N/A,,Overcast,200,2012-12-04 17:55:00
1:07 PM,64.4,55.4,73,30.00,2.5,SSW,12.7,-,N/A,Rain,Light Rain,200,2012-12-04 18:07:00
1:13 PM,62.6,55.4,77,30.00,3.0,SSW,16.1,-,N/A,Rain,Light Rain,200,2012-12-04 18:13:00
1:52 PM,60.8,57.2,88,30.00,4.0,SSW,11.5,-,N/A,Rain,Light Rain,200,2012-12-04 18:52:00
1:55 PM,60.6,57.4,89,30.00,4.0,SSW,11.5,-,0.00,Rain,Light Rain,200,2012-12-04 18:55:00
2:02 PM,60.8,57.2,88,30.00,6.0,SSW,10.4,-,N/A,Rain,Light Rain,210,2012-12-04 19:02:00
2:28 PM,60.8,57.2,88,30.00,5.0,SSW,11.5,-,N/A,Rain,Light Rain,210,2012-12-04 19:28:00
2:40 PM,60.8,57.2,88,30.00,5.0,SW,10.4,-,N/A,Rain,Light Rain,220,2012-12-04 19:40:00
2:54 PM,60.8,57.2,88,29.99,8.0,SSW,10.4,-,N/A,,Light Drizzle,210,2012-12-04 19:54:00
2:55 PM,60.3,57.9,92,29.99,7.0,SW,10.4,-,0.00,,Light Drizzle,220,2012-12-04 19:55:00
3:12 PM,57.2,53.6,88,30.01,4.0,WNW,15.0,-,N/A,Rain,Rain,300,2012-12-04 20:12:00
3:18 PM,55.4,51.8,88,30.01,4.0,NW,20.7,-,N/A,Rain,Heavy Rain,320,2012-12-04 20:18:00
3:23 PM,53.6,51.8,94,30.01,4.0,NW,17.3,-,N/A,Rain,Heavy Rain,320,2012-12-04 20:23:00
3:52 PM,50.0,48.2,94,30.04,4.0,NNW,13.8,-,N/A,Rain,Rain,330,2012-12-04 20:52:00
3:55 PM,50.2,47.8,92,30.04,6.0,NNW,13.8,-,0.07,Rain,Light Rain,330,2012-12-04 20:55:00
4:14 PM,48.2,44.6,87,30.07,7.0,NW,16.1,24.2,N/A,Rain,Light Rain,320,2012-12-04 21:14:00
4:26 PM,46.4,42.8,87,30.07,7.0,NNW,15.0,20.7,N/A,Rain,Light Rain,330,2012-12-04 21:26:00
4:55 PM,45.7,42.3,88,30.10,7.0,NW,11.5,-,0.00,Rain,Light Rain,320,2012-12-04 21:55:00
5:31 PM,44.6,41.0,87,30.12,10.0,NNW,8.1,-,N/A,Rain,Light Rain,330,2012-12-04 22:31:00
5:55 PM,45.3,41.4,86,30.13,9.0,Variable,6.9,-,0.00,Rain,Rain,0,2012-12-04 22:55:00
6:10 PM,44.6,41.0,87,30.13,10.0,NNW,6.9,-,N/A,,Light Drizzle,340,2012-12-04 23:10:00
6:43 PM,44.6,41.0,87,30.15,10.0,NW,5.8,-,N/A,,Light Drizzle,310,2012-12-04 23:43:00
6:55 PM,45.1,41.2,86,30.15,10.0,NW,5.8,-,0.00,,Light Drizzle,310,2012-12-04 23:55:00
7:55 PM,44.8,42.1,90,30.17,10.0,SW,4.6,-,0.00,,Overcast,230,2012-12-05 00:55:00
8:55 PM,43.2,41.2,93,30.17,10.0,SSW,3.5,-,N/A,,Mostly Cloudy,200,2012-12-05 01:55:00
9:55 PM,40.8,39.4,95,30.19,10.0,SW,3.5,-,N/A,,Scattered Clouds,220,2012-12-05 02:55:00
10:55 PM,41.2,40.3,97,30.20,10.0,SW,3.5,-,N/A,,Scattered Clouds,230,2012-12-05 03:55:00
11:55 PM,41.7,41.4,99,30.20,10.0,Calm,Calm,-,N/A,,Scattered Clouds,0,2012-12-05 04:55:00